Location: Béaulencourt
(50.0796°N, 2.8795°E)
Time: 23:15:34
(UTC+00:00)

Cosmos 1763 Rocket - Pass Details

Date: 20 January 2026
Orbit: 729 x 773 km, 74.0° (Epoch: 7 February)

Event Time Altitude Azimuth Distance (km) Brightness Sun altitude
Exits shadow 04:48:56 33° 1° (N) 1,230 4.5 -26.5°
Maximum altitude 04:50:58 54° 61° (ENE) 891 4.0 -26.2°
Drops below altitude 10° 04:55:56 10° 139° (SE) 2,242 6.4 -25.4°
Sets 04:58:20 0° 144° (SE) 3,167 7.2 -25.0°
